This demonstration page uses our WeatherBlox Daily Observations layout. Learn more.

Left ArrowRight Arrow

39.08367, -84.50855

Hourly Observations for January 28, 2017

Temp ( °F °C ) Dew Point ( °F °C ) Humidity (%) Winds ( mph kmh ) Pressure ( in mb ) Visibility ( mi km ) Precip ( " mm )
12:18 am 00:18 Cloudy 32 0 21 -6 64 64 W 21 33 29.94 1014 10 16 0.00 0.00
12:53 am 00:53 Cloudy 31 -0.6 22 -5.6 69 69 W 14 22 29.93 1014 10 16 0.00 0.00
1:53 am 01:53 Cloudy 30 -1.1 20 -6.7 66 66 W 16 26 29.93 1014 10 16 0.00 0.00
2:17 am 02:17 Cloudy 30 -1.1 20 -6.7 66 66 W 14 22 29.97 1015 10 16 0.00 0.00
2:53 am 02:53 Cloudy 30 -1.1 20 -6.7 66 66 WSW 10 17 29.93 1014 10 16 0.00 0.00
3:53 am 03:53 Cloudy 30 -1.1 20 -6.7 66 66 WSW 12 19 29.93 1014 10 16 0.00 0.00
4:53 am 04:53 Clear 28 -2.2 20 -6.7 72 72 WSW 8 13 29.92 1013 10 16 0.00 0.00
5:53 am 05:53 Clear 27 -2.8 20 -6.7 75 75 SW 12 19 29.92 1013 10 16 0.00 0.00
6:53 am 06:53 Cloudy 27 -2.8 21 -6.1 78 78 SSW 12 19 29.91 1013 10 16 0.00 0.00
7:53 am 07:53 Mostly Cloudy 27 -2.8 21 -6.1 78 78 SSW 13 20 29.91 1013 10 16 0.00 0.00
8:53 am 08:53 Partly Cloudy 28 -2.2 22 -5.6 78 78 SSW 9 15 29.91 1013 10 16 0.00 0.00
9:53 am 09:53 Mostly Cloudy 30 -1.1 23 -5 75 75 SSW 12 19 29.89 1012 10 16 0.00 0.00
10:53 am 10:53 Cloudy 32 0 23 -5 69 69 SSW 12 19 29.88 1012 10 16 0.00 0.00
11:53 am 11:53 Cloudy 35 1.7 24 -4.4 64 64 SW 8 13 29.86 1011 10 16 0.00 0.00
12:53 pm 12:53 Cloudy 38 3.3 26 -3.3 62 62 WSW 12 19 29.83 1010 10 16 0.00 0.00
1:53 pm 13:53 Cloudy 39 3.9 26 -3.3 60 60 W 18 30 29.81 1010 10 16 0.00 0.00
2:53 pm 14:53 Cloudy 36 2.2 26 -3.3 67 67 W 16 26 29.81 1009 10 16 0.00 0.00
3:53 pm 15:53 Cloudy 35 1.7 25 -3.9 67 67 W 12 19 29.83 1010 10 16 0.00 0.00
4:30 pm 16:30 Cloudy 34 1 25 -4 70 70 WNW 15 24 29.85 1011 10 16 0.00 0.00
4:53 pm 16:53 Cloudy 32 0 24 -4.4 73 73 WSW 15 24 29.85 1011 10 16 0.00 0.00
5:53 pm 17:53 Cloudy 32 0 24 -4.4 73 73 W 13 20 29.87 1012 10 16 0.00 0.00
6:53 pm 18:53 Cloudy 33 0.6 24 -4.4 70 70 WSW 10 17 29.88 1012 10 16 0.00 0.00
7:53 pm 19:53 Cloudy 33 0.6 25 -3.9 72 72 W 8 13 29.88 1012 10 16 0.00 0.00
8:53 pm 20:53 Cloudy 34 1.1 26 -3.3 73 73 WSW 6 9 29.88 1012 10 16 0.00 0.00
9:53 pm 21:53 Cloudy 34 1.1 26 -3.3 73 73 W 7 11 29.88 1012 10 16 0.00 0.00
10:53 pm 22:53 Cloudy 34 1.1 27 -2.8 76 76 SW 8 13 29.87 1012 10 16 0.00 0.00
11:53 pm 23:53 Cloudy 34 1.1 27 -2.8 76 76 SW 8 13 29.86 1011 10 16 0.00 0.00

Powered by AerisWeather